SCP
0 0 0 0 0 0 0 0 0 0 0 -0 0 1 1 3 2 0 2 1 1 1 1 1 1 0 0 0 0 2 3 1 2 2 1 1 4 3 2 1 1 1 3
0 0 0 0 0 0 0 0 0 0 0 0 0 0 0 0 0 2 3 1 1 1 1 1 0 0 0 0 0 5 2 2 2 2 1 1 2 5 3 1 1 2 1
0 0 0 0 0 0 0 0 0 0 0 0 0 -0 -0 -0 0 1 4 2 1 1 1 0 0 0 0 1 2 3 3 2 2 2 1 1 1 2 4 3 1 2 1
0 0 0 0 0 0 0 0 0 0 0 0 0 0 0 0 0 1 2 1 2 -0 -1 0 0 1 1 0 3 3 3 4 2 3 3 2 3 3 3 3 2 1 1
0 0 0 0 0 0 0 0 0 0 0 0 0 0 0 0 -0 0 1 0 1 2 -0 1 -0 0 1 1 3 3 3 4 2 2 3 3 2 4 3 3 3 1 0
0 0 0 0 0 0 0 0 0 0 0 0 0 0 0 0 0 0 1 3 1 1 -0 -1 1 1 1 0 3 5 4 4 4 2 4 3 3 2 2 2 1 1 2
0 0 0 0 0 0 0 0 0 0 0 0 0 0 0 0 0 0 0 1 1 1 0 0 6 0 1 1 3 5 6 6 4 6 4 3 4 3 2 3 1 1 1
0 0 0 0 0 0 0 0 0 0 0 0 0 0 0 0 0 0 0 0 0 1 2 1 3 -0 2 3 3 5 5 6 5 5 4 5 3 3 3 2 1 0 0
0 0 0 0 0 0 0 0 0 0 0 0 0 0 0 0 0 0 1 0 0 0 2 2 4 3 3 3 6 6 6 7 8 4 4 4 4 3 3 1 0 0 0
0 0 0 0 0 0 0 0 0 0 0 0 0 0 0 0 0 0 0 0 1 2 2 3 3 5 3 5 6 7 8 7 6 4 5 5 3 5 3 1 0 0 0
0 0 0 0 0 0 0 0 0 0 0 0 0 0 0 0 0 0 0 0 1 1 1 2 4 5 4 7 7 8 7 6 5 4 5 4 4 4 2 1 0 0 0
0 0 0 0 0 0 0 0 0 0 0 0 0 0 0 0 0 0 0 0 1 1 1 2 1 5 5 7 6 5 5 5 5 4 4 2 2 3 2 1 2 1 1
0 0 0 0 0 0 0 0 0 0 0 0 0 0 0 0 0 0 0 1 1 1 1 2 2 3 5 6 5 4 6 6 4 3 3 2 3 3 1 1 1 1 1
0 0 0 0 0 0 0 0 0 0 0 0 0 0 0 0 0 0 0 0 1 1 1 1 1 2 3 4 3 4 6 6 3 3 3 2 3 2 1 1 1 1 1
0 0 0 0 0 0 0 0 0 0 0 0 0 -0 0 0 0 0 0 0 1 1 1 1 1 2 3 4 4 4 6 6 3 3 2 3 2 1 1 1 1 1 1
0 0 0 0 0 0 0 0 0 0 0 0 0 0 0 0 0 0 0 0 1 1 1 1 1 2 3 2 4 5 7 5 3 3 2 2 0 0 0 0 0 0 1
0 0 0 0 0 0 0 0 0 0 0 0 0 0 0 0 0 0 0 0 1 1 1 1 1 2 3 1 3 5 6 3 3 3 3 1 0 0 0 0 0 0 0
0 0 0 0 0 0 0 0 0 0 0 0 -0 -0 0 0 0 0 0 0 1 1 1 2 2 2 4 0 2 3 3 3 2 2 1 1 1 0 0 0 0 0 0
0 0 0 0 0 0 0 0 0 0 0 0 0 -0 0 0 -0 0 0 0 1 1 2 2 2 3 2 0 1 1 2 2 2 1 0 1 1 0 0 0 0 0 0
0 -0 -0 -0 0 0 0 0 0 0 0 0 0 0 0 0 0 0 0 1 2 1 2 1 2 4 2 0 1 1 1 1 1 1 0 0 0 0 0 0 0 0 0
-0 -0 -0 -0 -0 0 0 -0 0 -0 -0 0 0 0 0 0 0 0 0 1 2 2 1 2 6 3 2 0 0 0 2 1 0 0 1 0 0 0 0 0 0 0 0
-0 -0 -0 -0 -0 -0 -0 -0 -0 -0 -0 0 0 0 0 0 0 0 1 1 2 2 3 5 5 3 1 0 0 0 0 0 0 0 0 0 0 0 0 0 0 0 0
-0 0 0 0 -0 -0 -0 0 -0 0 0 -0 -0 -0 -0 -0 0 0 1 2 2 3 3 3 3 1 1 0 0 0 0 0 1 0 0 0 0 0 0 0 0 0 0
0 0 0 0 0 0 0 -0 -0 -0 0 -0 0 0 0 0 0 1 1 1 2 4 4 3 2 1 1 0 0 0 0 0 0 0 0 0 0 0 0 0 0 0 0
0 0 0 0 0 -0 -0 -0 0 0 0 0 0 1 1 1 1 1 1 2 2 2 2 2 2 1 1 0 0 0 1 0 0 0 0 0 0 0 0 0 0 0 0
-0 -0 -0 0 -0 -0 -0 -0 0 0 0 0 0 1 1 0 0 0 0 0 0 0 1 1 1 1 0 0 0 0 0 0 0 0 0 0 0 0 0 0 0 0 0
Wind_Speed_500mb
37 25 19 16 12 22 34 34 42 42 67 83 45 46 21 19 28 30 31 44 59 65 61 60 64 56 55 55 40 53 45 39 30 24 28 34 42 37 43 30 33 32 35
48 39 33 23 15 15 33 37 41 39 65 59 82 73 61 52 35 27 21 26 44 50 62 68 61 59 49 60 57 62 42 38 29 27 25 30 37 40 37 24 30 33 29
41 36 32 27 16 10 19 26 47 53 40 65 72 73 68 83 79 71 52 27 32 40 56 68 66 64 64 69 68 56 53 38 29 31 29 19 28 21 25 26 29 25 24
23 23 29 28 20 13 17 16 21 34 37 39 63 66 65 79 72 60 64 54 44 49 61 56 67 67 67 73 60 54 63 46 36 32 40 42 30 16 20 17 24 26 29
31 36 31 22 18 15 16 19 25 28 28 38 37 40 70 104 92 85 90 76 61 53 55 64 72 77 78 66 57 54 53 54 43 39 33 28 33 39 33 37 30 24 24
22 23 23 22 20 20 18 17 20 28 32 40 47 49 53 63 67 72 81 86 82 76 78 87 74 76 77 70 71 59 61 56 47 38 38 30 25 26 30 32 34 30 26
28 28 26 25 22 22 22 21 22 25 24 29 34 41 55 61 68 73 64 59 79 76 84 95 100 95 92 80 73 62 60 61 53 54 41 37 34 31 36 27 31 25 19
29 28 23 29 32 29 28 25 24 25 26 31 31 37 45 51 53 58 69 69 66 64 71 87 85 97 92 84 81 69 67 65 54 58 54 42 28 29 33 34 28 25 32
26 21 30 33 33 33 34 32 30 30 27 29 38 38 43 55 57 56 55 51 64 69 71 72 76 77 86 78 73 72 70 62 58 55 51 45 32 36 34 26 26 28 32
34 37 38 44 43 37 37 39 35 37 37 36 36 41 43 51 56 61 71 73 75 59 68 65 74 81 73 76 67 63 62 64 57 48 45 38 32 36 34 28 25 26 27
37 45 51 50 46 44 44 43 44 43 43 44 45 45 47 49 53 58 66 75 77 84 80 77 66 83 72 64 64 64 59 57 49 47 45 40 38 38 31 30 25 26 27
45 48 49 52 49 49 49 49 42 45 47 47 51 55 51 50 53 57 63 68 73 76 82 79 77 73 68 62 70 71 53 49 53 49 45 38 35 43 39 30 27 26 29
41 45 50 50 49 47 48 48 49 50 48 50 58 59 60 57 58 61 64 63 69 71 73 76 67 75 72 69 71 66 55 51 51 51 44 36 43 44 33 34 25 32 32
45 46 46 47 50 49 55 58 60 57 53 56 57 58 58 59 63 63 66 65 68 70 69 72 67 73 67 66 67 61 58 56 49 48 42 37 46 41 34 28 31 27 32
46 44 51 52 55 57 58 66 66 61 61 59 60 63 63 64 69 70 69 67 71 70 69 68 59 75 72 70 66 64 64 57 54 49 39 39 39 37 31 27 30 35 35
47 52 56 64 64 67 66 62 64 63 66 67 67 63 63 69 75 73 74 75 70 68 69 73 71 78 78 74 73 71 67 63 53 48 38 40 46 45 42 42 35 38 36
57 67 65 67 60 63 73 67 67 71 69 70 72 71 75 73 73 75 77 78 71 70 75 73 78 79 79 76 76 74 68 63 53 47 44 39 33 41 38 41 43 39 35
52 61 64 60 63 70 69 66 68 73 79 82 81 82 82 82 81 88 86 84 77 75 75 79 81 79 78 76 81 80 60 53 49 46 43 38 36 32 27 23 33 34 32
53 66 73 77 75 78 74 69 80 87 85 92 107 92 88 99 94 103 98 89 82 77 78 84 84 82 83 78 83 79 57 52 52 40 36 37 32 30 34 27 23 26 32
72 73 77 79 82 80 75 80 81 85 89 98 100 106 112 113 95 97 98 84 79 80 83 88 88 82 86 84 78 74 51 53 44 40 40 42 33 30 27 30 27 29 26
83 82 83 84 79 77 77 79 86 92 101 106 107 118 110 104 89 89 87 90 79 86 88 82 79 84 82 82 82 67 51 48 44 38 39 41 41 30 22 32 28 28 27
85 85 89 89 87 87 80 81 89 102 115 112 120 128 126 94 81 88 87 80 89 86 83 79 79 80 79 85 85 64 51 46 43 40 34 32 33 29 27 28 33 26 23
94 90 91 94 91 83 80 96 100 105 118 136 135 99 104 97 79 79 78 87 90 89 85 85 80 72 89 90 79 65 52 51 39 39 38 34 27 29 27 28 27 25 24
91 88 86 87 84 83 84 81 91 104 124 98 22 79 93 96 86 80 89 92 89 91 87 85 77 81 93 89 80 66 58 58 43 36 36 29 23 27 23 21 21 22 23
77 68 65 68 69 66 67 67 60 84 86 66 66 71 81 86 88 83 84 88 89 85 78 79 84 88 78 77 67 61 58 46 37 41 35 32 30 29 26 24 22 23 23
70 68 62 60 61 54 55 59 49 58 53 57 58 72 77 83 87 80 78 69 68 73 69 73 70 65 66 76 71 61 50 46 37 27 30 36 36 31 32 27 22 21 23
Wind_Direction_500mb
239 230 206 194 223 219 220 232 251 216 244 261 253 257 276 281 285 239 243 242 241 245 252 255 248 253 242 244 242 256 259 255 258 258 263 268 267 265 246 246 255 260 264
231 226 210 198 202 231 216 221 229 247 224 249 259 259 253 259 248 260 254 255 265 262 253 252 244 249 243 239 238 250 256 258 248 243 258 269 264 250 255 227 239 255 258
228 214 211 218 215 202 231 210 216 231 248 233 240 259 265 264 256 256 265 271 292 282 277 270 260 255 245 243 246 243 252 235 240 241 230 259 267 291 224 232 233 241 252
204 203 211 213 218 208 250 241 238 230 226 239 231 243 265 271 255 252 252 258 258 280 290 294 267 254 245 242 239 244 253 245 227 235 239 238 255 277 260 233 233 230 245
194 203 207 219 225 227 228 248 253 259 254 245 243 230 233 258 265 253 252 263 273 261 266 286 288 265 244 240 222 243 254 247 235 223 238 243 246 249 266 275 236 225 237
225 218 220 225 235 231 242 258 259 270 269 263 260 255 254 253 251 256 243 243 250 264 255 276 277 274 252 235 241 239 255 246 242 224 232 230 234 239 243 254 257 250 234
226 226 225 240 249 254 251 251 254 256 265 269 275 267 266 263 255 252 246 236 245 250 248 250 258 264 251 241 236 244 245 249 236 237 227 227 231 247 252 247 264 264 242
247 238 245 268 270 265 260 263 254 252 267 274 277 276 262 263 261 258 246 238 227 228 247 245 246 256 250 240 238 243 251 238 240 233 230 236 236 243 247 234 253 261 254
245 259 267 272 273 267 269 271 270 270 265 269 275 274 274 264 251 245 240 245 245 231 242 246 245 251 242 233 233 239 238 233 243 231 232 231 230 236 228 232 248 257 277
266 255 279 282 273 269 266 269 268 275 278 279 271 267 269 266 266 262 256 248 236 232 238 242 246 240 234 224 231 230 229 231 234 220 226 229 218 228 224 227 236 248 261
271 270 283 279 270 270 270 267 270 277 277 279 279 267 263 263 258 257 260 259 254 242 235 237 231 236 228 225 225 216 217 225 218 218 222 230 209 216 225 227 233 242 246
285 283 278 275 274 277 273 268 265 273 279 281 280 274 270 263 258 256 255 256 254 251 245 242 241 233 225 218 219 218 212 216 211 215 210 210 210 220 210 223 225 235 241
283 269 271 273 276 274 272 270 270 274 282 285 286 273 268 268 261 256 254 249 254 251 247 236 226 227 223 216 218 213 203 209 212 212 211 205 210 222 215 229 227 237 237
286 280 273 271 273 276 278 279 273 275 280 289 288 274 271 270 267 261 258 247 245 246 241 240 224 227 221 212 208 203 197 206 209 210 207 204 216 218 218 221 217 229 229
280 277 275 274 278 281 285 283 277 275 282 282 284 275 268 272 269 262 259 252 245 247 239 233 222 224 216 209 205 197 195 202 202 206 202 201 213 213 217 220 227 226 229
289 283 276 276 280 280 283 280 277 278 280 279 282 276 272 269 267 262 257 256 241 242 235 225 221 220 213 208 205 196 192 200 195 199 193 206 216 218 218 213 216 219 222
288 289 282 281 284 289 288 279 276 279 275 275 278 276 273 267 260 264 257 255 240 239 231 220 219 215 208 205 203 194 191 193 191 192 195 201 212 221 217 218 221 227 231
303 295 295 297 290 285 282 280 277 275 273 274 277 277 272 267 267 261 256 250 237 235 224 214 215 206 201 200 197 192 189 187 185 194 196 193 210 213 198 212 221 225 236
283 288 290 291 285 284 283 283 281 276 267 266 281 274 266 267 266 253 249 244 236 226 215 211 206 196 192 197 197 187 183 179 185 186 189 191 200 209 194 202 216 218 225
293 289 286 287 282 279 286 286 277 273 267 273 269 270 273 267 258 241 237 237 232 216 209 203 194 187 190 192 192 176 175 175 177 181 191 190 196 215 204 196 215 227 231
287 289 290 286 285 288 285 282 284 280 281 274 272 272 266 258 239 225 224 228 220 207 200 189 180 189 193 184 180 171 174 177 177 182 194 199 197 212 216 206 214 228 242
293 294 296 297 295 292 288 291 289 293 286 281 273 262 262 250 225 217 221 216 203 196 183 173 177 188 185 175 168 165 171 173 174 182 186 202 206 214 217 213 229 229 219
291 294 293 290 288 290 297 300 294 291 290 294 289 237 217 212 210 216 216 196 188 177 172 167 168 173 168 167 172 168 168 165 172 180 196 202 215 211 211 226 241 212 193
291 292 288 287 288 291 291 292 296 303 307 331 99 174 193 202 200 202 183 174 166 162 159 159 157 159 164 168 168 170 167 173 176 176 182 197 207 189 203 212 202 178 193
292 291 293 289 290 294 295 295 305 303 325 19 113 139 157 158 158 162 167 163 163 162 159 160 158 158 162 168 168 167 172 172 173 186 196 198 183 179 186 171 158 168 183
290 290 289 293 291 291 295 302 315 317 354 25 106 124 141 145 150 148 147 150 157 158 157 156 157 160 163 168 169 170 169 172 190 173 167 171 176 184 185 180 186 178 192
Wind_Speed_850mb
37 25 19 16 12 22 34 34 42 42 67 83 45 46 21 19 28 30 31 44 59 65 61 60 64 56 55 55 40 53 45 39 30 24 28 34 42 37 43 30 33 32 35
48 39 33 23 15 15 33 37 41 39 65 59 82 73 61 52 35 27 21 26 44 50 62 68 61 59 49 60 57 62 42 38 29 27 25 30 37 40 37 24 30 33 29
41 36 32 27 16 10 19 26 47 53 40 65 72 73 68 83 79 71 52 27 32 40 56 68 66 64 64 69 68 56 53 38 29 31 29 19 28 21 25 26 29 25 24
23 23 29 28 20 13 17 16 21 34 37 39 63 66 65 79 72 60 64 54 44 49 61 56 67 67 67 73 60 54 63 46 36 32 40 42 30 16 20 17 24 26 29
31 36 31 22 18 15 16 19 25 28 28 38 37 40 70 104 92 85 90 76 61 53 55 64 72 77 78 66 57 54 53 54 43 39 33 28 33 39 33 37 30 24 24
22 23 23 22 20 20 18 17 20 28 32 40 47 49 53 63 67 72 81 86 82 76 78 87 74 76 77 70 71 59 61 56 47 38 38 30 25 26 30 32 34 30 26
28 28 26 25 22 22 22 21 22 25 24 29 34 41 55 61 68 73 64 59 79 76 84 95 100 95 92 80 73 62 60 61 53 54 41 37 34 31 36 27 31 25 19
29 28 23 29 32 29 28 25 24 25 26 31 31 37 45 51 53 58 69 69 66 64 71 87 85 97 92 84 81 69 67 65 54 58 54 42 28 29 33 34 28 25 32
26 21 30 33 33 33 34 32 30 30 27 29 38 38 43 55 57 56 55 51 64 69 71 72 76 77 86 78 73 72 70 62 58 55 51 45 32 36 34 26 26 28 32
34 37 38 44 43 37 37 39 35 37 37 36 36 41 43 51 56 61 71 73 75 59 68 65 74 81 73 76 67 63 62 64 57 48 45 38 32 36 34 28 25 26 27
37 45 51 50 46 44 44 43 44 43 43 44 45 45 47 49 53 58 66 75 77 84 80 77 66 83 72 64 64 64 59 57 49 47 45 40 38 38 31 30 25 26 27
45 48 49 52 49 49 49 49 42 45 47 47 51 55 51 50 53 57 63 68 73 76 82 79 77 73 68 62 70 71 53 49 53 49 45 38 35 43 39 30 27 26 29
41 45 50 50 49 47 48 48 49 50 48 50 58 59 60 57 58 61 64 63 69 71 73 76 67 75 72 69 71 66 55 51 51 51 44 36 43 44 33 34 25 32 32
45 46 46 47 50 49 55 58 60 57 53 56 57 58 58 59 63 63 66 65 68 70 69 72 67 73 67 66 67 61 58 56 49 48 42 37 46 41 34 28 31 27 32
46 44 51 52 55 57 58 66 66 61 61 59 60 63 63 64 69 70 69 67 71 70 69 68 59 75 72 70 66 64 64 57 54 49 39 39 39 37 31 27 30 35 35
47 52 56 64 64 67 66 62 64 63 66 67 67 63 63 69 75 73 74 75 70 68 69 73 71 78 78 74 73 71 67 63 53 48 38 40 46 45 42 42 35 38 36
57 67 65 67 60 63 73 67 67 71 69 70 72 71 75 73 73 75 77 78 71 70 75 73 78 79 79 76 76 74 68 63 53 47 44 39 33 41 38 41 43 39 35
52 61 64 60 63 70 69 66 68 73 79 82 81 82 82 82 81 88 86 84 77 75 75 79 81 79 78 76 81 80 60 53 49 46 43 38 36 32 27 23 33 34 32
53 66 73 77 75 78 74 69 80 87 85 92 107 92 88 99 94 103 98 89 82 77 78 84 84 82 83 78 83 79 57 52 52 40 36 37 32 30 34 27 23 26 32
72 73 77 79 82 80 75 80 81 85 89 98 100 106 112 113 95 97 98 84 79 80 83 88 88 82 86 84 78 74 51 53 44 40 40 42 33 30 27 30 27 29 26
83 82 83 84 79 77 77 79 86 92 101 106 107 118 110 104 89 89 87 90 79 86 88 82 79 84 82 82 82 67 51 48 44 38 39 41 41 30 22 32 28 28 27
85 85 89 89 87 87 80 81 89 102 115 112 120 128 126 94 81 88 87 80 89 86 83 79 79 80 79 85 85 64 51 46 43 40 34 32 33 29 27 28 33 26 23
94 90 91 94 91 83 80 96 100 105 118 136 135 99 104 97 79 79 78 87 90 89 85 85 80 72 89 90 79 65 52 51 39 39 38 34 27 29 27 28 27 25 24
91 88 86 87 84 83 84 81 91 104 124 98 22 79 93 96 86 80 89 92 89 91 87 85 77 81 93 89 80 66 58 58 43 36 36 29 23 27 23 21 21 22 23
77 68 65 68 69 66 67 67 60 84 86 66 66 71 81 86 88 83 84 88 89 85 78 79 84 88 78 77 67 61 58 46 37 41 35 32 30 29 26 24 22 23 23
70 68 62 60 61 54 55 59 49 58 53 57 58 72 77 83 87 80 78 69 68 73 69 73 70 65 66 76 71 61 50 46 37 27 30 36 36 31 32 27 22 21 23
Wind_Direction_850mb
239 230 206 194 223 219 220 232 251 216 244 261 253 257 276 281 285 239 243 242 241 245 252 255 248 253 242 244 242 256 259 255 258 258 263 268 267 265 246 246 255 260 264
231 226 210 198 202 231 216 221 229 247 224 249 259 259 253 259 248 260 254 255 265 262 253 252 244 249 243 239 238 250 256 258 248 243 258 269 264 250 255 227 239 255 258
228 214 211 218 215 202 231 210 216 231 248 233 240 259 265 264 256 256 265 271 292 282 277 270 260 255 245 243 246 243 252 235 240 241 230 259 267 291 224 232 233 241 252
204 203 211 213 218 208 250 241 238 230 226 239 231 243 265 271 255 252 252 258 258 280 290 294 267 254 245 242 239 244 253 245 227 235 239 238 255 277 260 233 233 230 245
194 203 207 219 225 227 228 248 253 259 254 245 243 230 233 258 265 253 252 263 273 261 266 286 288 265 244 240 222 243 254 247 235 223 238 243 246 249 266 275 236 225 237
225 218 220 225 235 231 242 258 259 270 269 263 260 255 254 253 251 256 243 243 250 264 255 276 277 274 252 235 241 239 255 246 242 224 232 230 234 239 243 254 257 250 234
226 226 225 240 249 254 251 251 254 256 265 269 275 267 266 263 255 252 246 236 245 250 248 250 258 264 251 241 236 244 245 249 236 237 227 227 231 247 252 247 264 264 242
247 238 245 268 270 265 260 263 254 252 267 274 277 276 262 263 261 258 246 238 227 228 247 245 246 256 250 240 238 243 251 238 240 233 230 236 236 243 247 234 253 261 254
245 259 267 272 273 267 269 271 270 270 265 269 275 274 274 264 251 245 240 245 245 231 242 246 245 251 242 233 233 239 238 233 243 231 232 231 230 236 228 232 248 257 277
266 255 279 282 273 269 266 269 268 275 278 279 271 267 269 266 266 262 256 248 236 232 238 242 246 240 234 224 231 230 229 231 234 220 226 229 218 228 224 227 236 248 261
271 270 283 279 270 270 270 267 270 277 277 279 279 267 263 263 258 257 260 259 254 242 235 237 231 236 228 225 225 216 217 225 218 218 222 230 209 216 225 227 233 242 246
285 283 278 275 274 277 273 268 265 273 279 281 280 274 270 263 258 256 255 256 254 251 245 242 241 233 225 218 219 218 212 216 211 215 210 210 210 220 210 223 225 235 241
283 269 271 273 276 274 272 270 270 274 282 285 286 273 268 268 261 256 254 249 254 251 247 236 226 227 223 216 218 213 203 209 212 212 211 205 210 222 215 229 227 237 237
286 280 273 271 273 276 278 279 273 275 280 289 288 274 271 270 267 261 258 247 245 246 241 240 224 227 221 212 208 203 197 206 209 210 207 204 216 218 218 221 217 229 229
280 277 275 274 278 281 285 283 277 275 282 282 284 275 268 272 269 262 259 252 245 247 239 233 222 224 216 209 205 197 195 202 202 206 202 201 213 213 217 220 227 226 229
289 283 276 276 280 280 283 280 277 278 280 279 282 276 272 269 267 262 257 256 241 242 235 225 221 220 213 208 205 196 192 200 195 199 193 206 216 218 218 213 216 219 222
288 289 282 281 284 289 288 279 276 279 275 275 278 276 273 267 260 264 257 255 240 239 231 220 219 215 208 205 203 194 191 193 191 192 195 201 212 221 217 218 221 227 231
303 295 295 297 290 285 282 280 277 275 273 274 277 277 272 267 267 261 256 250 237 235 224 214 215 206 201 200 197 192 189 187 185 194 196 193 210 213 198 212 221 225 236
283 288 290 291 285 284 283 283 281 276 267 266 281 274 266 267 266 253 249 244 236 226 215 211 206 196 192 197 197 187 183 179 185 186 189 191 200 209 194 202 216 218 225
293 289 286 287 282 279 286 286 277 273 267 273 269 270 273 267 258 241 237 237 232 216 209 203 194 187 190 192 192 176 175 175 177 181 191 190 196 215 204 196 215 227 231
287 289 290 286 285 288 285 282 284 280 281 274 272 272 266 258 239 225 224 228 220 207 200 189 180 189 193 184 180 171 174 177 177 182 194 199 197 212 216 206 214 228 242
293 294 296 297 295 292 288 291 289 293 286 281 273 262 262 250 225 217 221 216 203 196 183 173 177 188 185 175 168 165 171 173 174 182 186 202 206 214 217 213 229 229 219
291 294 293 290 288 290 297 300 294 291 290 294 289 237 217 212 210 216 216 196 188 177 172 167 168 173 168 167 172 168 168 165 172 180 196 202 215 211 211 226 241 212 193
291 292 288 287 288 291 291 292 296 303 307 331 99 174 193 202 200 202 183 174 166 162 159 159 157 159 164 168 168 170 167 173 176 176 182 197 207 189 203 212 202 178 193
292 291 293 289 290 294 295 295 305 303 325 19 113 139 157 158 158 162 167 163 163 162 159 160 158 158 162 168 168 167 172 172 173 186 196 198 183 179 186 171 158 168 183
290 290 289 293 291 291 295 302 315 317 354 25 106 124 141 145 150 148 147 150 157 158 157 156 157 160 163 168 169 170 169 172 190 173 167 171 176 184 185 180 186 178 192